Regional Weather Roundup
Issued by NWS

Home | Current Version | Previous Version | Graphics & Text | Print | Product List | Glossary On
Versions: 1 2 3 4 5 6 7 8 9 10 11 12 13 14 15 16 17 18 19 20 21 22 23 24 25 26 27 28 29 30 31 32 33 34 35 36 37 38 39 40 41 42 43 44 45 46 47 48 49 50
000
ASUS43 KLMK 230902
RWRKY
KENTUCKY REGIONAL WEATHER ROUNDUP
NATIONAL WEATHER SERVICE LOUISVILLE KY
500 AM EDT WED JUL 23 2014

NOTE "FAIR" INDICATES FEW OR NO CLOUDS BELOW 12,000 FEET
WITH NO SIGNIFICANT WEATHER AND/OR OBSTRUCTIONS TO VISIBILITY.

KYZ001>023-026-027-061>063-070>075-231000-
WESTERN AND SOUTH CENTRAL KENTUCKY

CITY           SKY/WX    TMP DP  RH WIND       PRES   REMARKS
PADUCAH        CLEAR     71  68  90 S3        30.03S FOG
HENDERSON      PTCLDY    70  66  88 SW3       30.02S
OWENSBORO      CLEAR     72  70  93 CALM      30.03S
HOPKINSVILLE   CLEAR     74  74 100 SW5       30.05S
BOWLING GREEN  CLEAR     76  71  85 SW3       30.05S
GLASGOW        CLEAR     71  71 100 CALM      30.05S
$$

KYZ024-025-028>034-038-045-046-053-231000-
NORTH CENTRAL KENTUCKY

CITY           SKY/WX    TMP DP  RH WIND       PRES   REMARKS
LOUISVILLE/SDF PTCLDY    78  70  76 S3        30.02S
LOUISVILLE/LOU CLEAR     76  71  85 CALM      30.02F
FORT KNOX      CLEAR     71  69  93 S2        30.03R
$$

KYZ035>037-039>044-047>052-055>060-089>105-231000-
NORTHEAST KENTUCKY

CITY           SKY/WX    TMP DP  RH WIND       PRES   REMARKS
LEXINGTON      CLEAR     74  69  85 SW3       30.05F
COVINGTON      PTCLDY    74  68  81 SW3       30.03R
FRANKFORT      CLEAR     73  70  90 SW3       30.03S
$$

KYZ054-064>069-076>088-106>120-231000-
SOUTHEAST KENTUCKY

CITY           SKY/WX    TMP DP  RH WIND       PRES   REMARKS
JACKSON        PTCLDY    72  69  90 CALM      30.07F
LONDON         PTCLDY    72  69  90 S3        30.08F FOG
SOMERSET       CLEAR     70  70 100 CALM      30.08S FOG
MIDDLESBORO    PTCLDY    67  67 100 CALM      30.10S
MONTICELLO     MOSUNNY   70  69  96 CALM      30.09S FOG
$$




USA.gov is the U.S. government's official web portal to all federal, state and local government web resources and services.